Weather History for KMRJ - March, 2013

Change the Weather History Date:

Friday, March 29, 2013

  Actual Average (KLNR) Record (KLNR)
Temperature  
Mean Temperature 42 °F -  
Max Temperature 51 °F 49 °F 80 °F (1998)
Min Temperature 33 °F 31 °F 21 °F (2008)
Degree Days  
Heating Degree Days 23    
Moisture  
Dew Point 23 °F    
Average Humidity 48    
Maximum Humidity 75    
Minimum Humidity 30    
Precipitation  
Precipitation 0.00 in - - ()
Sea Level Pressure  
Sea Level Pressure 30.26 in    
Wind  
Wind Speed 1 mph (ESE)    
Max Wind Speed 7 mph    
Max Gust Speed -    
Visibility 10 miles    
Events      
Averages and records for this station are not official NWS values.
T = Trace of Precipitation, MM = Missing Value Source: NWS Daily Summary

Daily Weather History Graph

Daily Weather History Graph

Search for Another Location

Airport or City:

Trip Planner

Search our weather history database for the weather conditions in past years. The results will help you decide how hot, cold, wet, or windy it might be!

Date:

Astronomy

Mar. 29, 2013 Rise Set
Actual Time 6:47 AM CDT 7:24 PM CDT
Civil Twilight 6:19 AM CDT 7:52 PM CDT
Nautical Twilight 5:45 AM CDT 8:26 PM CDT
Astronomical Twilight 5:10 AM CDT 9:01 PM CDT
Moon 10:29 PM CDT (3/29) 7:52 AM CDT (3/29)
Length of Visible Light 13h 33m
Length of Day
12h 36m
Waning Gibbous, 93% of the Moon is Illuminated
Mar 29
Waning Gibbous
Apr 2
Last Quarter
Apr 10
New
Apr 18
First Quarter
Apr 25
Full

Hourly Weather History & Observations

Time (CDT) Temp. Windchill Dew Point Humidity Pressure Visibility Wind Dir Wind Speed Gust Speed Precip Events Conditions
12:15 AM 35.6 °F - 24.8 °F 65% 30.29 in 10.0 mi Calm Calm - N/A   Overcast
12:35 AM 35.6 °F - 26.6 °F 70% 30.29 in 10.0 mi Calm Calm - N/A   Overcast
12:55 AM 37.4 °F - 23.0 °F 56% 30.29 in 10.0 mi Calm Calm - N/A   Overcast
1:15 AM 37.4 °F - 23.0 °F 56% 30.29 in 10.0 mi Calm Calm - N/A   Overcast
1:55 AM 37.4 °F - 21.2 °F 52% 30.29 in 10.0 mi Calm Calm - N/A   Overcast
2:15 AM 37.4 °F - 21.2 °F 52% 30.28 in 10.0 mi Calm Calm - N/A   Overcast
2:35 AM 37.4 °F - 21.2 °F 52% 30.28 in 10.0 mi Calm Calm - N/A   Overcast
2:55 AM 35.6 °F - 23.0 °F 60% 30.28 in 10.0 mi Calm Calm - N/A   Mostly Cloudy
3:15 AM 33.8 °F - 23.0 °F 65% 30.28 in 10.0 mi Calm Calm - N/A   Mostly Cloudy
3:35 AM 35.6 °F - 21.2 °F 56% 30.28 in 10.0 mi Calm Calm - N/A   Scattered Clouds
3:55 AM 35.6 °F - 23.0 °F 60% 30.27 in 10.0 mi Calm Calm - N/A   Clear
4:15 AM 35.6 °F - 21.2 °F 56% 30.27 in 10.0 mi Calm Calm - N/A   Clear
4:35 AM 37.4 °F - 19.4 °F 48% 30.27 in 10.0 mi Calm Calm - N/A   Clear
4:55 AM 37.4 °F - 19.4 °F 48% 30.27 in 10.0 mi Calm Calm - N/A   Clear
5:15 AM 35.6 °F - 21.2 °F 56% 30.27 in 10.0 mi Calm Calm - N/A   Clear
5:35 AM 35.6 °F - 21.2 °F 56% 30.27 in 10.0 mi Calm Calm - N/A   Clear
5:55 AM 35.6 °F - 19.4 °F 52% 30.27 in 10.0 mi Calm Calm - N/A   Clear
6:15 AM 35.6 °F - 19.4 °F 52% 30.27 in 10.0 mi Calm Calm - N/A   Clear
6:35 AM 35.6 °F - 19.4 °F 52% 30.28 in 10.0 mi Calm Calm - N/A   Clear
6:55 AM 33.8 °F - 21.2 °F 60% 30.28 in 10.0 mi Calm Calm - N/A   Clear
7:15 AM 33.8 °F - 23.0 °F 65% 30.29 in 10.0 mi Calm Calm - N/A   Clear
7:35 AM 33.8 °F - 21.2 °F 60% 30.29 in 10.0 mi Calm Calm - N/A   Clear
7:55 AM 33.8 °F - 26.6 °F 75% 30.29 in 10.0 mi Calm Calm - N/A   Clear
8:15 AM 37.4 °F - 23.0 °F 56% 30.29 in 10.0 mi Calm Calm - N/A   Clear
8:35 AM 41.0 °F - 21.2 °F 45% 30.30 in 10.0 mi Calm Calm - N/A   Clear
8:55 AM 41.0 °F 39.0 °F 21.2 °F 45% 30.30 in 10.0 mi ENE 3.5 mph - N/A   Clear
9:15 AM 41.0 °F 39.0 °F 21.2 °F 45% 30.30 in 10.0 mi ENE 3.5 mph - N/A   Clear
9:35 AM 42.8 °F 41.1 °F 19.4 °F 39% 30.31 in 10.0 mi ENE 3.5 mph - N/A   Clear
9:55 AM 42.8 °F - 21.2 °F 42% 30.31 in 10.0 mi Calm Calm - N/A   Clear
10:15 AM 42.8 °F - 21.2 °F 42% 30.31 in 10.0 mi Calm Calm - N/A   Clear
10:35 AM 44.6 °F 42.2 °F 23.0 °F 43% 30.31 in 10.0 mi ENE 4.6 mph - N/A   Clear
10:55 AM 44.6 °F 43.1 °F 21.2 °F 39% 30.31 in 10.0 mi SE 3.5 mph - N/A   Clear
11:15 AM 44.6 °F 43.1 °F 19.4 °F 37% 30.30 in 10.0 mi ENE 3.5 mph - N/A   Clear
11:35 AM 44.6 °F 43.1 °F 19.4 °F 37% 30.30 in 10.0 mi ENE 3.5 mph - N/A   Clear
11:55 AM 46.4 °F - 19.4 °F 34% 30.30 in 10.0 mi Calm Calm - N/A   Clear
12:15 PM 46.4 °F - 21.2 °F 37% 30.29 in 10.0 mi Calm Calm - N/A   Clear
12:35 PM 48.2 °F - 21.2 °F 34% 30.29 in 10.0 mi Calm Calm - N/A   Clear
12:55 PM 46.4 °F - 21.2 °F 37% 30.29 in 10.0 mi Calm Calm - N/A   Clear
1:15 PM 48.2 °F - 21.2 °F 34% 30.28 in 10.0 mi Calm Calm - N/A   Clear
1:55 PM 50.0 °F - 23.0 °F 35% 30.27 in 10.0 mi Calm Calm - N/A   Clear
2:15 PM 50.0 °F - 21.2 °F 32% 30.26 in 10.0 mi Calm Calm - N/A   Clear
2:35 PM 50.0 °F - 23.0 °F 35% 30.26 in 10.0 mi WSW 4.6 mph - N/A   Clear
2:55 PM 50.0 °F - 21.2 °F 32% 30.26 in 10.0 mi Calm Calm - N/A   Clear
3:15 PM 50.0 °F - 21.2 °F 32% 30.25 in 10.0 mi Calm Calm - N/A   Clear
3:35 PM 50.0 °F - 23.0 °F 35% 30.24 in 10.0 mi Calm Calm - N/A   Clear
3:55 PM 51.8 °F - 21.2 °F 30% 30.24 in 10.0 mi Calm Calm - N/A   Clear
4:15 PM 50.0 °F - 21.2 °F 32% 30.23 in 10.0 mi Calm Calm - N/A   Clear
4:35 PM 51.8 °F - 23.0 °F 33% 30.22 in 10.0 mi Calm Calm - N/A   Clear
4:55 PM 51.8 °F - 21.2 °F 30% 30.22 in 10.0 mi Calm Calm - N/A   Clear
5:15 PM 50.0 °F - 21.2 °F 32% 30.22 in 10.0 mi Calm Calm - N/A   Clear
5:55 PM 48.2 °F - 26.6 °F 43% 30.22 in 10.0 mi Calm Calm - N/A   Mostly Cloudy
6:15 PM 48.2 °F - 26.6 °F 43% 30.22 in 10.0 mi Calm Calm - N/A   Scattered Clouds
6:35 PM 46.4 °F - 30.2 °F 53% 30.22 in 10.0 mi Calm Calm - N/A   Mostly Cloudy
6:55 PM 46.4 °F 45.2 °F 28.4 °F 50% 30.21 in 10.0 mi East 3.5 mph - N/A   Overcast
7:15 PM 46.4 °F - 26.6 °F 46% 30.21 in 10.0 mi Calm Calm - N/A   Overcast
7:55 PM 44.6 °F 43.1 °F 24.8 °F 46% 30.21 in 10.0 mi ESE 3.5 mph - N/A   Clear
8:15 PM 44.6 °F 43.1 °F 23.0 °F 43% 30.21 in 10.0 mi ESE 3.5 mph - N/A   Clear
8:35 PM 44.6 °F 42.2 °F 23.0 °F 43% 30.21 in 10.0 mi ESE 4.6 mph - N/A   Clear
8:55 PM 42.8 °F 40.1 °F 24.8 °F 49% 30.21 in 10.0 mi East 4.6 mph - N/A   Clear
9:15 PM 41.0 °F 38.0 °F 26.6 °F 57% 30.21 in 10.0 mi East 4.6 mph - N/A   Clear
9:35 PM 42.8 °F 40.1 °F 24.8 °F 49% 30.21 in 10.0 mi East 4.6 mph - N/A   Clear
9:55 PM 41.0 °F 37.1 °F 26.6 °F 57% 30.21 in 10.0 mi ESE 5.8 mph - N/A   Clear
10:15 PM 41.0 °F 37.1 °F 26.6 °F 57% 30.21 in 10.0 mi SE 5.8 mph - N/A   Clear
10:35 PM 41.0 °F 37.1 °F 26.6 °F 57% 30.21 in 10.0 mi SE 5.8 mph - N/A   Mostly Cloudy
10:55 PM 41.0 °F 37.1 °F 26.6 °F 57% 30.21 in 10.0 mi SE 5.8 mph - N/A   Overcast
11:15 PM 39.2 °F 34.2 °F 28.4 °F 65% 30.20 in 10.0 mi SE 6.9 mph - N/A   Overcast
11:35 PM 39.2 °F 35.0 °F 28.4 °F 65% 30.19 in 10.0 mi SE 5.8 mph - N/A   Overcast
11:55 PM 39.2 °F 35.0 °F 26.6 °F 61% 30.20 in 10.0 mi SSE 5.8 mph - N/A   Overcast